Location: Ladrillo (historical)
(32.8195°N, 117.2231°W)
Time: 21:21:07
(UTC+00:00)

YAOGAN 6 - Pass Details

Date: 29 October 2020
Orbit: 465 x 504 km, 97.0° (Epoch: 26 November)

Event Time Altitude Azimuth Distance (km) Brightness Sun altitude
Rises 13:27:03 0° 18° (NNE) 2,590 6.4 -8.5°
Reaches altitude 10° 13:29:13 10° 24° (NNE) 1,698 5.5 -8.1°
Maximum altitude 13:32:45 46° 99° (E) 665 3.9 -7.4°
Drops below altitude 10° 13:36:12 10° 174° (S) 1,665 5.5 -6.6°
Sets 13:38:18 0° 180° (S) 2,534 6.4 -6.2°
